Location: The Saddle
(36.8333°N, 80.3417°W)
Time: 12:00:19
(UTC-05:00)

A-11 Canister half - Pass Details

Date: 11 December 2023
Orbit: 1526 x 1682 km, 47.3° (Epoch: 22 February)

Event Time Altitude Azimuth Distance (km) Brightness Sun altitude
Rises 20:58:11 0° 288° (WNW) 4,934 12.4 -45.8°
Reaches altitude 10° 21:01:35 10° 294° (WNW) 3,945 11.6 -46.4°
Enters shadow 21:07:55 37° 323° (NW) 2,410 10.1 -47.7°
Maximum altitude 21:11:18 47° 7° (N) 2,099 - -48.4°
Drops below altitude 10° 21:20:49 10° 79° (E) 3,875 - -50.3°
Sets 21:24:07 0° 86° (E) 4,840 - -50.9°
